1489240800.65,27536,8.94,73136.8,-1.17,-43.01,-43.01,0,*52
1489240801.91,27537,8.94,73136.5,-1.17,-43.67,-43.55,0,*52
1489240803.13,27538,8.94,73136.8,-1.17,-44.33,-44.27,0,*59
1489240804.38,27539,8.94,73138.8,-1.19,-44.53,-44.47,0,*56
1489240805.59,27540,8.94,73138.3,-1.21,-44.79,-44.79,0,*56
1489240806.82,27541,8.88,73136.0,-1.21,-44.73,-44.61,0,*54
1489240808.08,27542,8.94,73138.0,-1.21,-44.21,-44.01,0,*56
1489240809.27,27543,8.94,73134.0,-1.25,-43.87,-43.87,0,*51
1489240810.51,27544,8.94,73138.3,-1.23,-44.79,-44.79,0,*50
1489240811.72,27545,8.94,73136.0,-1.25,-44.79,-44.79,0,*57
1489240812.98,27546,8.94,73136.3,-1.25,-44.47,-44.21,0,*54
1489240814.23,27547,8.94,73136.0,-1.27,-43.67,-43.49,0,*5B
1489240815.47,27548,8.94,73140.3,-1.27,-43.75,-43.61,0,*5D
1489240816.71,27549,8.94,73142.8,-1.27,-43.95,-43.95,0,*59
1489240817.97,27550,8.88,73130.3,-1.27,-43.67,-43.49,0,*5D
1489240819.2,27551,8.94,73138.8,-1.27,-43.49,-43.49,0,*50
1489240820.46,27552,8.94,73136.8,-1.27,-43.67,-43.41,0,*57
1489240821.7,27553,8.94,73138.8,-1.27,-44.27,-44.27,0,*52
1489240822.91,27554,8.94,73138.8,-1.29,-44.27,-44.07,0,*59
1489240824.17,27555,8.94,73136.8,-1.27,-44.33,-44.27,0,*51
1489240825.4,27556,8.94,73136.8,-1.29,-43.41,-43.09,0,*55
1489240826.66,27557,8.94,73136.8,-1.27,-43.09,-42.89,0,*5F
1489240827.94,27558,8.94,73138.5,-1.27,-42.83,-42.69,0,*5D
1489240829.17,27559,8.94,73136.5,-1.27,-42.89,-42.89,0,*58
1489240830.4,27560,8.94,73136.5,-1.25,-43.55,-43.35,0,*56
1489240831.62,27561,8.94,73136.8,-1.25,-43.87,-43.81,0,*57
1489240832.86,27562,8.94,73138.0,-1.25,-44.67,-44.47,0,*50
1489240834.1,27563,8.94,73136.3,-1.29,-44.99,-44.93,0,*55
1489240835.31,27564,8.94,73136.3,-1.29,-45.61,-45.33,0,*5F
1489240836.54,27565,8.94,73138.3,-1.29,-45.13,-44.93,0,*50
1489240837.8,27566,8.94,73134.5,-1.35,-45.47,-45.21,0,*57
1489240839.05,27567,8.94,73132.8,-1.35,-45.81,-45.61,0,*58
1489240840.33,27568,8.94,73138.5,-1.35,-46.07,-45.81,0,*54
1489240841.58,27569,8.94,73134.8,-1.41,-45.73,-45.73,0,*5B
1489240842.82,27570,8.94,73138.8,-1.41,-46.35,-46.15,0,*51
1489240844.1,27571,8.94,73138.5,-1.43,-45.81,-45.73,0,*5D
1489240845.33,27572,8.94,73136.3,-1.43,-45.41,-45.21,0,*55
1489240846.54,27573,8.94,73136.3,-1.45,-46.21,-45.87,0,*5B
1489240847.78,27574,8.94,73136.3,-1.45,-45.81,-45.61,0,*5D
1489240849.02,27575,8.94,73138.3,-1.45,-46.07,-46.01,0,*54
1489240850.26,27576,8.94,73138.3,-1.47,-44.99,-44.79,0,*5D
1489240851.5,27577,8.94,73136.0,-1.49,-44.87,-44.79,0,*5D
1489240852.75,27578,8.94,73138.8,-1.49,-44.67,-44.41,0,*57
1489240854.0,27579,8.94,73138.5,-1.49,-44.07,-43.81,0,*5B
1489240855.28,27580,8.94,73138.8,-1.49,-44.21,-43.81,0,*59
1489240856.53,27581,8.94,73138.5,-1.49,-44.07,-43.81,0,*5C
1489240857.77,27582,8.94,73136.3,-1.49,-44.61,-44.27,0,*54
1489240859.05,27583,8.94,73140.8,-1.49,-44.47,-44.21,0,*57
1489240860.28,27584,8.94,73138.5,-1.49,-43.35,-43.15,0,*52
1489240861.54,27585,8.94,73138.5,-1.49,-42.83,-42.63,0,*5F
1489240862.77,27586,8.94,73138.0,-1.49,-43.41,-43.35,0,*51
1489240864.01,27587,8.94,73140.0,-1.49,-43.61,-43.41,0,*51
1489240865.27,27588,8.94,73140.3,-1.47,-43.95,-43.81,0,*57
1489240866.54,27589,8.94,73138.3,-1.47,-43.75,-43.55,0,*51
1489240867.82,27590,8.94,73138.0,-1.47,-43.81,-43.55,0,*52
1489240869.09,27591,8.94,73136.0,-1.47,-44.01,-43.75,0,*5E
1489240870.33,27592,8.94,73136.8,-1.47,-43.61,-43.41,0,*5B
1489240871.62,27593,8.94,73140.3,-1.49,-44.21,-44.01,0,*54
1489240872.89,27594,8.94,73138.8,-1.47,-44.27,-44.21,0,*59
1489240874.15,27595,8.94,73138.3,-1.47,-43.75,-43.55,0,*5C
1489240875.42,27596,8.94,73136.3,-1.47,-42.83,-42.75,0,*54
1489240876.67,27597,8.94,73136.0,-1.47,-43.15,-42.83,0,*52
1489240877.91,27598,8.94,73136.3,-1.47,-43.35,-43.01,0,*54
1489240879.17,27599,8.94,73138.5,-1.45,-43.29,-43.09,0,*52
1489240880.39,27600,8.94,73136.0,-1.45,-42.75,-42.75,0,*53
1489240881.61,27601,8.94,73138.8,-1.45,-43.61,-43.49,0,*58
1489240882.83,27602,8.94,73136.0,-1.45,-44.79,-44.61,0,*58
1489240884.09,27603,8.94,73134.5,-1.43,-45.07,-44.87,0,*5F
1489240885.33,27604,8.94,73136.8,-1.45,-44.53,-44.33,0,*51
1489240886.56,27605,8.94,73136.3,-1.47,-44.41,-44.07,0,*56
1489240887.83,27606,8.94,73138.8,-1.47,-43.01,-42.83,0,*5C
1489240889.11,27607,8.94,73142.8,-1.47,-43.21,-42.83,0,*5F
1489240890.37,27608,8.94,73136.5,-1.45,-42.69,-42.45,0,*55
1489240891.6,27609,8.94,73142.8,-1.43,-42.63,-42.37,0,*5D
1489240892.86,27610,8.94,73136.8,-1.43,-42.05,-41.87,0,*5D
1489240894.09,27611,8.94,73134.8,-1.43,-41.99,-41.61,0,*52
1489240895.33,27612,8.94,73138.0,-1.41,-41.99,-41.67,0,*55
1489240896.59,27613,8.94,73136.5,-1.39,-42.95,-42.75,0,*54
1489240897.85,27614,8.94,73142.3,-1.39,-44.01,-43.87,0,*54
1489240899.1,27615,8.94,73142.0,-1.39,-44.07,-43.81,0,*55
1489240900.35,27616,8.94,73138.0,-1.41,-44.67,-44.47,0,*52
1489240901.61,27617,8.94,73136.0,-1.39,-44.21,-44.07,0,*5A
1489240902.87,27618,8.94,73138.8,-1.41,-45.07,-44.93,0,*52
1489240904.08,27619,8.94,73140.8,-1.41,-45.61,-45.61,0,*5F
1489240905.31,27620,8.94,73136.8,-1.45,-45.67,-45.47,0,*53
1489240906.53,27621,8.94,73136.8,-1.45,-45.13,-44.99,0,*53
1489240907.76,27622,8.94,73136.8,-1.45,-44.93,-44.79,0,*57
1489240909.01,27623,8.94,73138.5,-1.47,-44.79,-44.61,0,*59
1489240910.24,27624,8.94,73136.0,-1.49,-44.27,-44.07,0,*5B
1489240911.47,27625,8.94,73138.8,-1.47,-45.67,-45.33,0,*57
1489240912.74,27626,8.94,73138.5,-1.47,-45.53,-45.47,0,*50
1489240913.99,27627,8.94,73140.3,-1.49,-44.67,-44.41,0,*5E
1489240915.25,27628,8.94,73136.5,-1.49,-44.27,-44.21,0,*53
1489240916.49,27629,8.94,73136.3,-1.49,-44.99,-44.79,0,*5A
1489240917.74,27630,8.94,73138.0,-1.49,-44.41,-44.21,0,*5A
1489240919.0,27631,8.94,73138.8,-1.49,-45.47,-45.21,0,*5D
1489240920.25,27632,8.94,73138.8,-1.51,-44.67,-44.47,0,*55
1489240921.5,27633,8.94,73136.8,-1.53,-44.13,-43.87,0,*5E
1489240922.78,27634,8.94,73136.0,-1.53,-44.01,-43.81,0,*5C
1489240924.07,27635,8.94,73138.0,-1.53,-43.81,-43.67,0,*5A
1489240925.35,27636,8.94,73136.5,-1.53,-44.13,-44.01,0,*52
1489240926.56,27637,8.94,73138.3,-1.51,-43.61,-43.49,0,*58
1489240927.82,27638,8.94,73142.8,-1.51,-43.29,-43.29,0,*5D
1489240929.07,27639,8.94,73138.3,-1.51,-44.47,-44.13,0,*5D
1489240930.31,27640,8.94,73138.3,-1.51,-43.81,-43.61,0,*5C
1489240931.52,27641,8.94,73136.5,-1.51,-43.61,-43.49,0,*59
1489240932.75,27642,8.94,73144.5,-1.51,-44.13,-44.07,0,*55
1489240933.95,27643,8.94,73138.8,-1.51,-43.87,-43.61,0,*59
1489240935.21,27644,8.94,73142.5,-1.49,-43.15,-42.95,0,*56
1489240936.45,27645,8.94,73136.3,-1.51,-43.41,-43.09,0,*5B
1489240937.71,27646,8.94,73136.3,-1.53,-43.49,-43.21,0,*58
1489240938.94,27647,8.94,73142.0,-1.49,-42.63,-42.37,0,*5D
1489240940.17,27648,8.94,73136.5,-1.47,-42.51,-42.37,0,*5D
1489240941.42,27649,8.94,73136.3,-1.49,-42.13,-41.93,0,*59
1489240942.68,27650,8.94,73138.0,-1.47,-41.81,-41.61,0,*5A
1489240943.97,27651,8.94,73136.8,-1.43,-42.31,-41.93,0,*5A
1489240945.22,27652,8.94,73132.0,-1.43,-42.37,-42.05,0,*53
1489240946.49,27653,8.94,73136.3,-1.43,-41.93,-41.87,0,*56
1489240947.69,27654,8.94,73138.5,-1.41,-42.51,-42.37,0,*56
1489240948.9,27655,8.94,73134.8,-1.41,-43.01,-43.01,0,*57
1489240950.16,27656,8.94,73136.8,-1.39,-43.15,-42.95,0,*52
1489240951.42,27657,8.94,73138.0,-1.39,-43.15,-42.83,0,*54
1489240952.65,27658,8.94,73132.5,-1.39,-43.87,-43.75,0,*58
1489240953.88,27659,8.94,73136.5,-1.41,-44.47,-44.27,0,*5D
1489240955.13,27660,8.94,73134.0,-1.41,-44.67,-44.67,0,*51
1489240956.38,27661,8.94,73134.5,-1.41,-44.73,-44.67,0,*55
1489240957.58,27662,8.94,73132.0,-1.41,-44.07,-43.87,0,*5C
1489240958.78,27663,8.94,73132.3,-1.41,-44.07,-43.87,0,*5D
1489240960.03,27664,8.94,73136.0,-1.45,-45.27,-45.21,0,*57
1489240961.27,27665,8.94,73132.8,-1.45,-44.93,-44.41,0,*5F
1489240962.51,27666,8.94,73134.8,-1.45,-44.41,-44.21,0,*55
1489240963.77,27667,8.94,73134.3,-1.45,-44.93,-44.73,0,*5C
1489240965.0,27668,8.94,73138.3,-1.45,-44.33,-43.87,0,*55
1489240966.24,27669,8.94,73134.0,-1.45,-43.29,-43.15,0,*53
1489240967.48,27670,8.94,73132.5,-1.47,-43.35,-43.15,0,*54
1489240968.77,27671,8.94,73134.0,-1.47,-44.21,-44.21,0,*57
1489240970.03,27672,8.94,73134.8,-1.47,-44.79,-44.67,0,*5B
1489240971.28,27673,8.94,73134.3,-1.47,-44.79,-44.61,0,*5C
1489240972.51,27674,8.94,73132.5,-1.49,-45.21,-44.99,0,*5E
1489240973.78,27675,8.94,73138.8,-1.49,-44.67,-44.47,0,*5F
1489240975.04,27676,8.94,73134.5,-1.49,-44.01,-43.61,0,*5F
1489240976.32,27677,8.94,73132.3,-1.49,-43.21,-42.95,0,*51
1489240977.57,27678,8.94,73134.3,-1.49,-44.07,-43.81,0,*59
1489240978.83,27679,8.94,73136.0,-1.49,-43.75,-43.55,0,*53
1489240980.07,27680,8.94,73132.3,-1.49,-43.95,-43.75,0,*59
1489240981.32,27681,8.94,73134.8,-1.49,-44.47,-44.41,0,*50
1489240982.6,27682,8.94,73138.5,-1.49,-44.21,-44.01,0,*57
1489240983.86,27683,8.94,73138.5,-1.49,-43.75,-43.55,0,*56
1489240985.14,27684,8.94,73138.0,-1.49,-44.67,-44.47,0,*51
1489240986.4,27685,8.94,73136.8,-1.49,-44.27,-44.01,0,*56
1489240987.62,27686,8.94,73136.0,-1.51,-44.33,-44.07,0,*5F
1489240988.89,27687,8.94,73136.5,-1.51,-44.01,-43.67,0,*5E
1489240990.14,27688,8.94,73138.5,-1.51,-44.47,-44.13,0,*57
1489240991.38,27689,8.94,73136.5,-1.51,-44.27,-44.13,0,*50
1489240992.64,27690,8.94,73136.3,-1.51,-44.33,-44.13,0,*5D
1489240993.87,27691,8.94,73132.5,-1.51,-43.81,-43.49,0,*5A
1489240995.07,27692,8.94,73136.8,-1.51,-43.87,-43.61,0,*55
1489240996.3,27693,8.94,73132.8,-1.51,-43.81,-43.61,0,*52
1489240997.53,27694,8.94,73136.3,-1.51,-44.13,-43.87,0,*51
1489240998.82,27695,8.94,73134.8,-1.53,-44.01,-43.67,0,*5F
1489241000.06,27696,8.94,73136.0,-1.51,-43.67,-43.41,0,*5D
1489241001.29,27697,8.94,73136.3,-1.51,-43.41,-43.29,0,*56
1489241002.52,27698,8.94,73138.3,-1.51,-43.29,-42.89,0,*5C
1489241003.77,27699,8.94,73136.8,-1.49,-43.21,-43.01,0,*5D
1489241005.06,27700,8.94,73134.3,-1.49,-43.81,-43.55,0,*57
1489241006.31,27701,8.94,73136.3,-1.49,-43.15,-42.83,0,*51
1489241007.55,27702,9.0,73140.5,-1.49,-43.61,-43.35,0,*5D
1489241008.79,27703,8.94,73138.3,-1.49,-43.61,-43.41,0,*5F
1489241010.08,27704,9.0,73138.3,-1.47,-42.57,-42.31,0,*54
1489241011.33,27705,8.94,73138.3,-1.49,-42.57,-42.51,0,*5D
1489241012.56,27706,9.0,73142.8,-1.49,-44.41,-44.07,0,*5A
1489241013.81,27707,8.94,73138.0,-1.49,-44.47,-44.27,0,*5F
1489241015.09,27708,8.94,73136.8,-1.49,-44.67,-44.47,0,*54
1489241016.34,27709,8.94,73136.0,-1.49,-44.01,-43.75,0,*53
1489241017.6,27710,8.94,73136.0,-1.49,-44.01,-43.75,0,*5B
1489241018.86,27711,8.94,73136.8,-1.49,-44.27,-44.01,0,*5A
1489241020.09,27712,8.94,73136.0,-1.51,-44.47,-44.07,0,*50
1489241021.35,27713,8.94,73138.5,-1.51,-44.13,-44.01,0,*56
1489241022.61,27714,8.94,73138.3,-1.51,-43.81,-43.67,0,*5A
1489241023.86,27715,8.94,73138.5,-1.51,-43.81,-43.67,0,*5B
1489241025.09,27716,9.0,73136.0,-1.51,-43.21,-43.01,0,*52
1489241026.33,27717,9.0,73140.8,-1.51,-43.41,-43.21,0,*57
1489241027.54,27718,8.94,73136.0,-1.51,-43.49,-43.41,0,*56
1489241028.81,27719,9.0,73136.3,-1.47,-43.01,-42.83,0,*53
1489241030.03,27720,8.94,73136.3,-1.49,-41.99,-41.61,0,*5B
1489241031.29,27721,8.94,73134.3,-1.47,-41.99,-41.93,0,*59
1489241032.55,27722,8.94,73134.5,-1.47,-42.13,-41.93,0,*5B
1489241033.84,27723,9.0,73138.3,-1.47,-42.57,-42.31,0,*51
1489241035.1,27724,8.94,73136.8,-1.47,-42.51,-42.31,0,*50
1489241036.36,27725,8.94,73134.5,-1.45,-42.57,-42.45,0,*56
1489241037.6,27726,9.0,73136.8,-1.43,-41.61,-41.41,0,*52
1489241038.86,27727,9.0,73138.3,-1.43,-41.81,-41.49,0,*55
1489241040.12,27728,9.0,73136.3,-1.43,-42.69,-42.37,0,*55
1489241041.38,27729,9.0,73138.3,-1.43,-41.99,-41.67,0,*5E
1489241042.64,27730,9.0,73138.3,-1.41,-41.81,-41.67,0,*5D
1489241043.9,27731,9.0,73138.0,-1.41,-42.45,-42.05,0,*50
1489241045.13,27732,8.94,73136.8,-1.41,-42.89,-42.69,0,*59
1489241046.34,27733,9.0,73138.5,-1.41,-42.51,-42.25,0,*55
1489241047.59,27734,9.0,73138.5,-1.39,-42.31,-41.99,0,*5F
1489241048.88,27735,8.94,73132.0,-1.35,-42.69,-42.31,0,*5E
1489241050.15,27736,8.94,73134.5,-1.35,-42.95,-42.51,0,*58
1489241051.4,27737,9.0,73138.5,-1.35,-42.89,-42.57,0,*52
1489241052.66,27738,9.0,73138.0,-1.39,-42.75,-42.45,0,*51
1489241053.91,27739,9.0,73136.0,-1.39,-42.63,-42.45,0,*57
1489241055.17,27740,9.0,73136.5,-1.39,-42.63,-42.19,0,*50
1489241056.42,27741,9.0,73136.5,-1.35,-42.25,-41.93,0,*5E
1489241057.7,27742,8.94,73132.0,-1.31,-42.31,-41.93,0,*5C
1489241058.95,27743,8.94,73132.8,-1.31,-42.37,-41.93,0,*5B
1489241060.21,27744,9.0,73138.3,-1.31,-42.13,-41.67,0,*51
1489241061.5,27745,9.0,73132.8,-1.31,-41.93,-41.55,0,*5A
1489241062.76,27746,8.94,73132.5,-1.31,-41.87,-41.35,0,*5A
1489241064.02,27747,9.0,73138.0,-1.27,-41.87,-41.67,0,*5B
1489241065.25,27748,9.0,73134.3,-1.27,-42.51,-42.25,0,*59
1489241066.52,27749,9.0,73132.8,-1.27,-43.61,-43.21,0,*5F
1489241067.75,27750,9.0,73138.0,-1.29,-42.51,-42.19,0,*51
1489241069.0,27751,9.0,73136.5,-1.27,-42.89,-42.45,0,*52
1489241070.24,27752,9.0,73134.0,-1.29,-43.01,-42.69,0,*50
1489241071.47,27753,9.0,73136.5,-1.27,-42.89,-42.51,0,*55
1489241072.73,27754,9.0,73134.0,-1.27,-43.29,-42.89,0,*5C
1489241073.96,27755,9.0,73134.8,-1.27,-43.75,-43.61,0,*53
1489241075.22,27756,9.0,73136.3,-1.29,-44.33,-44.13,0,*59
1489241076.45,27757,9.0,73138.5,-1.29,-43.49,-43.09,0,*5E
1489241077.7,27758,9.0,73134.3,-1.29,-42.69,-42.45,0,*5B
1489241078.94,27759,8.94,73136.0,-1.29,-42.63,-42.31,0,*53
1489241080.22,27760,8.94,73132.3,-1.27,-42.45,-42.05,0,*54
1489241081.5,27761,9.0,73138.3,-1.27,-42.05,-41.67,0,*56
1489241082.74,27762,9.0,73138.0,-1.29,-42.51,-42.31,0,*5A
1489241083.99,27763,9.0,73132.5,-1.27,-42.45,-42.25,0,*55
1489241085.25,27764,9.0,73136.0,-1.25,-42.19,-41.93,0,*57
1489241086.48,27765,9.0,73138.8,-1.23,-42.13,-41.73,0,*54
1489241087.71,27766,9.0,73136.5,-1.25,-42.19,-41.99,0,*5F
1489241088.95,27767,9.0,73138.0,-1.23,-42.25,-41.99,0,*57
1489241090.21,27768,9.0,73138.0,-1.23,-41.81,-41.73,0,*51
1489241091.49,27769,9.0,73134.8,-1.23,-42.83,-42.57,0,*54
1489241092.75,27770,9.0,73136.5,-1.23,-43.67,-43.41,0,*51
1489241093.95,27771,9.0,73138.3,-1.25,-43.35,-43.01,0,*55
1489241095.19,27772,9.0,73140.5,-1.23,-43.01,-42.63,0,*52
1489241096.46,27773,9.0,73138.5,-1.23,-42.95,-42.63,0,*5F
1489241097.72,27774,9.0,73136.3,-1.23,-42.83,-42.63,0,*5F
1489241098.97,27775,9.0,73138.3,-1.23,-42.57,-42.37,0,*56
1489241100.2,27776,9.0,73138.5,-1.23,-42.63,-42.25,0,*51
1489241101.43,27777,9.0,73138.3,-1.21,-42.69,-42.37,0,*5B
1489241102.66,27778,9.0,73138.3,-1.21,-43.35,-43.09,0,*50
1489241103.89,27779,9.0,73140.0,-1.21,-43.09,-42.89,0,*57
1489241105.09,27780,9.0,73138.0,-1.21,-42.75,-42.37,0,*5E
1489241106.35,27781,9.0,73134.0,-1.21,-43.09,-42.95,0,*5D
1489241107.61,27782,9.0,73132.8,-1.19,-42.45,-42.13,0,*52
1489241108.86,27783,9.0,73136.3,-1.19,-41.99,-41.67,0,*51
1489241110.13,27784,9.0,73134.8,-1.21,-41.93,-41.67,0,*57
1489241111.39,27785,9.0,73136.8,-1.19,-41.67,-41.41,0,*52
1489241112.62,27786,9.0,73136.5,-1.19,-41.49,-41.11,0,*58
1489241113.9,27787,9.0,73138.0,-1.19,-41.81,-41.67,0,*5C
1489241115.1,27788,9.0,73136.3,-1.17,-41.49,-41.29,0,*53
1489241116.35,27789,9.0,73138.8,-1.15,-41.87,-41.67,0,*58
1489241117.59,27790,9.0,73136.3,-1.15,-42.19,-41.99,0,*55
1489241118.82,27791,9.0,73136.5,-1.17,-41.81,-41.61,0,*53
1489241120.06,27792,9.0,73134.5,-1.15,-42.37,-42.19,0,*50
1489241121.28,27793,9.0,73140.0,-1.15,-42.25,-41.99,0,*59
1489241122.51,27794,9.0,73136.3,-1.15,-41.81,-41.61,0,*54
1489241123.77,27795,9.0,73138.3,-1.15,-42.05,-41.81,0,*54
1489241125.0,27796,9.0,73138.0,-1.11,-42.05,-41.73,0,*5E
1489241126.24,27797,9.0,73134.8,-1.13,-41.99,-41.73,0,*5B
1489241127.45,27798,9.0,73136.8,-1.11,-41.99,-41.73,0,*56
1489241128.71,27799,9.0,73136.8,-1.11,-42.19,-41.93,0,*52
1489241129.95,27800,9.0,73138.8,-1.13,-43.41,-43.15,0,*5F
1489241131.24,27801,9.0,73138.0,-1.13,-42.95,-42.57,0,*51
1489241132.47,27802,9.0,73138.8,-1.11,-42.83,-42.75,0,*57
1489241133.68,27803,9.0,73136.3,-1.11,-42.75,-42.51,0,*59
1489241134.92,27804,9.0,73138.5,-1.11,-42.51,-42.19,0,*54
1489241136.16,27805,9.0,73136.0,-1.11,-42.31,-41.99,0,*58
1489241137.39,27806,9.0,73138.5,-1.11,-42.31,-41.99,0,*5B
1489241138.63,27807,9.0,73136.0,-1.13,-41.99,-41.61,0,*5E
1489241139.87,27808,9.0,73140.5,-1.11,-41.87,-41.67,0,*5A
1489241141.09,27809,9.0,73138.3,-1.07,-41.99,-41.87,0,*5D
1489241142.33,27810,9.0,73140.3,-1.07,-42.37,-42.19,0,*56
1489241143.54,27811,9.0,73136.0,-1.07,-42.75,-42.37,0,*5D
1489241144.77,27812,9.0,73138.3,-1.11,-43.09,-42.89,0,*56
1489241146.03,27813,9.0,73138.5,-1.11,-43.09,-42.69,0,*59
1489241147.27,27814,9.0,73138.5,-1.07,-42.51,-42.19,0,*52
1489241148.54,27815,9.0,73138.5,-1.11,-42.69,-42.31,0,*55
1489241149.77,27816,9.0,73136.5,-1.07,-42.57,-42.51,0,*5A
1489241151.01,27817,9.0,73138.8,-1.07,-41.99,-41.81,0,*54
1489241152.26,27818,9.0,73136.0,-1.05,-41.93,-41.61,0,*5D
1489241153.5,27819,9.0,73138.5,-1.05,-41.11,-40.91,0,*58
1489241154.76,27820,9.0,73136.5,-1.05,-41.81,-41.61,0,*55
1489241156.01,27821,9.0,73136.8,-1.05,-41.81,-41.49,0,*5E
1489241157.29,27822,9.0,73136.5,-1.05,-42.31,-41.93,0,*52
1489241158.56,27823,9.0,73134.8,-1.03,-42.05,-41.67,0,*59
1489241159.79,27824,9.0,73138.5,-1.03,-41.73,-41.55,0,*5D
1489241161.03,27825,9.0,73136.0,-1.03,-42.05,-41.87,0,*51
1489241162.29,27826,9.0,73136.8,-1.01,-41.81,-41.61,0,*57
1489241163.52,27827,9.0,73136.5,-1.03,-42.45,-42.13,0,*59
1489241164.75,27828,9.0,73140.8,-1.03,-42.25,-41.93,0,*5B
1489241165.99,27829,9.0,73134.8,-1.01,-41.87,-41.73,0,*5D
1489241167.27,27830,9.0,73138.3,-1.01,-41.81,-41.81,0,*5E
1489241168.53,27831,9.0,73138.5,-1.01,-42.25,-42.05,0,*5D
1489241169.79,27832,9.0,73136.0,-1.01,-41.81,-41.61,0,*52
1489241171.02,27833,9.0,73136.3,-0.99,-42.05,-41.87,0,*64
1489241172.25,27834,9.0,73136.5,-0.99,-41.87,-41.81,0,*6C
1489241173.46,27835,9.0,73136.3,-0.99,-41.87,-41.73,0,*60
1489241174.66,27836,9.0,73132.5,-0.99,-41.99,-41.87,0,*67
1489241175.89,27837,9.0,73134.8,-0.99,-42.05,-41.99,0,*6F
1489241177.15,27838,9.0,73136.8,-0.97,-42.95,-42.75,0,*66
1489241178.38,27839,9.0,73132.5,-0.97,-43.41,-43.35,0,*6A
1489241179.64,27840,9.0,73136.8,-0.99,-43.81,-43.67,0,*61
1489241180.84,27841,9.0,73138.3,-0.99,-41.99,-41.99,0,*68
1489241182.07,27842,9.0,73134.0,-0.99,-41.23,-41.17,0,*6C
1489241183.36,27843,9.0,73132.5,-0.97,-41.67,-41.55,0,*65
1489241184.59,27844,9.0,73136.0,-0.99,-41.73,-41.55,0,*69
1489241185.84,27845,9.0,73136.5,-0.97,-41.35,-41.29,0,*6F
1489241187.1,27846,9.0,73138.5,-0.95,-41.67,-41.67,0,*63
1489241188.31,27847,9.0,73138.5,-0.95,-43.01,-42.89,0,*63
1489241189.51,27848,9.0,73136.8,-0.95,-43.15,-43.01,0,*68
1489241190.72,27849,9.0,73138.0,-0.95,-43.15,-43.15,0,*6C
1489241191.94,27850,9.0,73134.0,-0.95,-42.63,-42.45,0,*60
1489241193.16,27851,9.0,73134.3,-0.95,-42.51,-42.45,0,*60
1489241194.41,27852,9.0,73134.3,-0.95,-42.83,-42.83,0,*66
1489241195.61,27853,9.0,73136.5,-0.95,-43.95,-43.87,0,*64
1489241196.83,27854,9.0,73138.5,-0.99,-43.87,-44.01,0,*65
1489241198.04,27855,9.0,73138.8,-0.99,-43.49,-43.49,0,*6D
1489241199.29,27856,9.0,73132.3,-0.97,-43.15,-43.09,0,*6D
1489241200.52,27857,9.0,73136.0,-0.99,-42.63,-42.57,0,*68
1489241201.77,27858,9.0,73132.8,-0.97,-42.19,-42.13,0,*64
1489241203.02,27859,9.0,73136.3,-0.97,-41.99,-41.93,0,*65
1489241204.27,27860,9.0,73138.3,-0.97,-42.19,-42.13,0,*6F
1489241205.54,27861,9.0,73134.8,-0.97,-41.93,-41.81,0,*67
1489241206.8,27862,9.0,73134.5,-0.97,-41.81,-41.73,0,*6A
1489241208.03,27863,9.0,73136.0,-0.95,-42.69,-42.51,0,*6F
1489241209.29,27864,9.0,73138.8,-0.93,-41.87,-41.67,0,*6B
1489241210.49,27865,9.0,73138.0,-0.95,-41.87,-41.73,0,*69
1489241211.74,27866,9.0,73134.5,-0.93,-42.13,-41.93,0,*6C
1489241213.0,27867,9.0,73134.3,-0.93,-41.93,-41.73,0,*68
1489241214.26,27868,9.0,73138.0,-0.93,-41.87,-41.67,0,*67
1489241215.51,27869,9.0,73136.5,-0.89,-41.35,-41.03,0,*66
1489241216.77,27870,9.0,73132.5,-0.91,-41.81,-41.55,0,*6B
1489241218.05,27871,9.0,73138.8,-0.89,-41.55,-41.35,0,*6C
1489241219.31,27872,9.0,73138.5,-0.89,-41.87,-41.67,0,*67
1489241220.56,27873,9.0,73138.0,-0.89,-42.05,-41.87,0,*61
1489241221.82,27874,9.0,73136.0,-0.83,-41.23,-40.91,0,*6D
1489241223.04,27875,9.0,73136.3,-0.85,-41.49,-41.17,0,*69
1489241224.3,27876,9.0,73136.5,-0.83,-41.67,-41.49,0,*6B
1489241225.56,27877,9.0,73136.8,-0.83,-41.87,-41.55,0,*69
1489241226.77,27878,9.0,73136.3,-0.81,-41.73,-41.29,0,*64
1489241228.0,27879,9.0,73140.3,-0.81,-41.67,-41.49,0,*66
1489241229.23,27880,9.0,73138.3,-0.81,-41.67,-41.41,0,*68
1489241230.47,27881,9.0,73136.0,-0.81,-41.67,-41.29,0,*67
1489241231.73,27882,9.0,73138.0,-0.79,-41.41,-41.23,0,*6D
1489241232.96,27883,9.0,73136.5,-0.77,-41.17,-40.97,0,*6F
1489241234.19,27884,9.0,73136.5,-0.77,-41.03,-40.79,0,*6D
1489241235.46,27885,9.0,73138.0,-0.75,-40.97,-40.79,0,*62
1489241236.69,27886,9.0,73138.8,-0.75,-41.41,-41.11,0,*64
1489241237.95,27887,9.0,73138.3,-0.75,-41.29,-40.97,0,*64
1489241239.15,27888,9.0,73136.3,-0.73,-41.11,-40.73,0,*6C
1489241240.43,27889,9.0,73142.0,-0.71,-41.23,-40.85,0,*67
1489241241.65,27890,9.0,73138.8,-0.71,-41.49,-41.29,0,*64
1489241242.91,27891,9.0,73140.0,-0.69,-41.23,-40.85,0,*67
1489241244.12,27892,9.0,73138.0,-0.69,-41.03,-40.73,0,*6F
1489241245.36,27893,9.0,73138.5,-0.67,-40.79,-40.47,0,*6B
1489241246.61,27894,9.0,73138.0,-0.69,-42.31,-42.05,0,*68
1489241247.89,27895,9.0,73138.8,-0.67,-42.83,-42.57,0,*69
1489241249.15,27896,9.0,73136.0,-0.67,-41.67,-41.41,0,*67
1489241250.39,27897,9.0,73140.0,-0.67,-41.17,-40.79,0,*6B
1489241251.65,27898,9.0,73140.8,-0.63,-41.73,-41.55,0,*6D
1489241252.9,27899,9.0,73136.8,-0.63,-42.13,-41.93,0,*63
1489241254.15,27900,9.0,73138.3,-0.63,-42.75,-42.57,0,*69
1489241255.41,27901,9.0,73138.3,-0.63,-42.75,-42.31,0,*68
1489241256.64,27902,9.0,73136.8,-0.63,-41.73,-41.41,0,*6A
1489241257.87,27903,9.0,73140.3,-0.63,-41.41,-41.17,0,*69
1489241259.12,27904,9.0,73138.3,-0.63,-41.17,-40.79,0,*64
1489241260.35,27905,9.0,73138.8,-0.61,-41.35,-40.91,0,*61
1489241261.56,27906,9.0,73136.5,-0.61,-41.11,-40.91,0,*64
1489241262.79,27907,9.0,73136.0,-0.59,-41.49,-41.17,0,*6C
1489241264.02,27908,9.0,73140.3,-0.59,-41.87,-41.49,0,*6A
1489241265.27,27909,9.0,73142.3,-0.57,-41.93,-41.55,0,*6D
1489241266.49,27910,9.0,73140.0,-0.57,-42.57,-42.13,0,*6F
1489241267.78,27911,9.0,73136.5,-0.59,-42.69,-42.31,0,*6D
1489241269.01,27912,9.0,73138.3,-0.57,-42.69,-42.51,0,*66
1489241270.26,27913,9.0,73138.0,-0.57,-42.05,-41.67,0,*6B
1489241271.49,27914,9.0,73138.3,-0.57,-42.75,-42.31,0,*6B
1489241272.73,27915,9.0,73140.3,-0.57,-43.09,-42.75,0,*60
1489241273.96,27916,9.0,73140.5,-0.59,-43.15,-42.75,0,*60
1489241275.22,27917,9.0,73138.8,-0.59,-43.49,-42.95,0,*66
1489241276.51,27918,9.0,73138.8,-0.59,-44.01,-43.67,0,*6E
1489241277.77,27919,9.0,73138.0,-0.59,-43.67,-43.35,0,*6F
1489241279.05,27920,9.0,73138.5,-0.59,-42.57,-42.31,0,*62
1489241280.33,27921,9.0,73138.0,-0.59,-41.93,-41.55,0,*69
1489241281.61,27922,9.0,73138.3,-0.59,-42.45,-42.05,0,*64
1489241282.87,27923,9.0,73138.8,-0.59,-42.13,-41.55,0,*60
1489241284.08,27924,9.0,73140.3,-0.57,-41.87,-41.29,0,*6C
1489241285.28,27925,9.0,73140.5,-0.57,-42.89,-42.51,0,*6C
1489241286.48,27926,9.0,73138.3,-0.57,-43.15,-42.75,0,*6D
1489241287.76,27927,9.0,73142.0,-0.59,-43.55,-43.29,0,*6E
1489241289.05,27928,9.0,73140.3,-0.59,-42.95,-42.57,0,*64
1489241290.33,27929,9.0,73136.5,-0.59,-42.95,-42.57,0,*65
1489241291.55,27930,9.0,73136.5,-0.57,-43.29,-42.89,0,*66
1489241292.78,27931,9.0,73140.3,-0.57,-43.55,-43.15,0,*68
1489241294.01,27932,9.0,73140.5,-0.59,-43.49,-43.15,0,*68
1489241295.27,27933,9.0,73140.5,-0.59,-43.49,-42.95,0,*60
1489241296.53,27934,9.0,73142.0,-0.59,-42.89,-42.31,0,*64
1489241297.79,27935,9.0,73140.5,-0.59,-43.35,-43.09,0,*69
1489241299.05,27936,9.0,73142.3,-0.59,-43.75,-43.29,0,*6C
1489241300.33,27937,9.0,73140.0,-0.59,-43.09,-42.69,0,*63
1489241301.56,27938,9.0,73138.8,-0.59,-43.15,-42.75,0,*6C
1489241302.82,27939,9.0,73138.5,-0.59,-43.55,-43.15,0,*6E
1489241304.1,27940,9.0,73142.3,-0.59,-44.73,-44.33,0,*60
1489241305.36,27941,9.0,73140.0,-0.63,-44.01,-43.35,0,*6C
1489241306.58,27942,9.0,73138.0,-0.61,-43.55,-43.01,0,*6C
1489241307.81,27943,9.0,73138.5,-0.61,-42.83,-42.51,0,*63
1489241309.07,27944,9.0,73138.5,-0.63,-43.41,-42.95,0,*61
1489241310.3,27945,9.0,73140.0,-0.63,-43.35,-42.63,0,*6A
1489241311.52,27946,9.0,73142.3,-0.61,-42.57,-42.13,0,*69